535  
ASUS41 KOKX 182006  
RWROKX  
 
REGIONAL WEATHER ROUNDUP  
NATIONAL WEATHER SERVICE NEW YORK NY  
400 PM EDT SAT AUG 18 2018  
 
NOTE: "FAIR" INDICATES FEW OR NO CLOUDS BELOW 12,000 FEET WITH NO  
SIGNIFICANT WEATHER AND/OR S TO VISIBILITY
.  
 
NYZ071-072-176-178-NJZ106-104-182100-  
NEW YORK CITY METRO AREA  
 
CITY SKY/WX TMP DP RH WIND PRES REMARKS
 
CENTRAL PARK PTSUNNY 83 71 67 VRB6 29.79F  
BRONX BOT GARD NOT AVBL  
BRONX LEHMAN C N/A 86 68 54 W9 N/A  
LAGUARDIA ARPT PTSUNNY 89 68 49 W13 29.75F HX 93  
QUEENS COLLEGE N/A 86 72 62 SW10 N/A HX 92  
KENNEDY INTL PTSUNNY 85 76 74 S12 29.77F HX 94  
BREEZY POINT N/A 82 N/A N/A S7 N/A  
BROOKLYN COLL N/A 86 72 62 S9 N/A HX 92  
STATEN ISLAND N/A 86 72 62 W8 N/A HX 92  
NEWARK/LIBERTY PTSUNNY 89 71 55 W15G22 29.76F HX 95  
TETERBORO FAIR 87 70 56 W12 29.75F HX 92  

 
 
NYZ177-179-078>081-182100-  
LONG ISLAND NEW YORK  
 
CITY SKY/WX TMP DP RH WIND PRES REMARKS
 
JONES BEACH N/A 81 N/A N/A S8G14 N/A  
WANTAGH N/A 84 73 70 S8 N/A HX 91  
HEMPSTEAD N/A 79 75 89 W1 29.81R  
MATINECOCK PT N/A 82 N/A N/A SW8 N/A  
FARMINGDALE LGT RAIN 83 74 74 SW10 29.77F  
MACARTHUR/ISP PTSUNNY 84 75 74 SW6 29.77S HX 92  
STONY BROOK N/A 82 73 74 W2 N/A  
SHIRLEY FAIR 83 77 82 VRB6 29.78S HX 92  
MT SINAI HARB N/A N/A N/A N/A W2 N/A  
WESTHAMPTON FAIR 83 72 69 SW8 29.80S  
EAST HAMPTON FAIR 79 73 81 SW6 29.77F  
SOUTHOLD N/A 79 75 89 SW2 N/A  
MONTAUK N/A 79 73 82 SW5 29.79S  

 
 
NYZ052-065-067-182100-  
HUDSON VALLEY  
 
CITY SKY/WX TMP DP RH WIND PRES REMARKS
 
WHITE PLAINS FAIR 83 70 64 VRB6 29.77F  
LARCHMONT HARB N/A 81 N/A N/A S14 N/A  
CROTON ON HUDS N/A 84 N/A N/A SW8 N/A  
SOMERS N/A 79 72 78 N3 N/A  
BREWSTER N/A 70 68 94 N12 N/A  
NEWBURGH TSTM 73 72 94 W6 29.83R  
MONTGOMERY PTSUNNY 75 72 90 NE10 29.81R THUNDER  
OTISVILLE N/A 75 72 88 E5 N/A  
WARWICK N/A 72 72 100 N9 N/A  
SUFFERN N/A 82 72 69 W5 N/A  
POUGHKEEPSIE CLOUDY 73 70 90 N8 29.80R  
ALBANY PTSUNNY 74 62 66 NE10G20 29.86R  

 
 
NJZ001-105-106-008-010-013-015-019>022-104-182100-  
NEW JERSEY  
 
CITY SKY/WX TMP DP RH WIND PRES REMARKS
 
NEWARK/LIBERTY PTSUNNY 89 71 55 W15G22 29.76F HX 95  
TETERBORO FAIR 87 70 56 W12 29.75F HX 92  
CALDWELL FAIR 85 71 63 SW7 29.76F HX 90  
SOMERVILLE FAIR 86 71 60 CALM 29.75F HX 91  
LINDEN NOT AVBL  
PERTH AMBOY N/A 84 N/A N/A W14 N/A  
SUSSEX FAIR 74 73 97 CALM 29.81 THUNDER  
ANDOVER N/A 83 74 74 SW9 29.79F  
TRENTON FAIR 86 70 58 W8 29.78F HX 90  
MILLVILLE FAIR 88 72 58 W10 29.81F HX 94  
ATLANTIC CITY FAIR 91 73 55 W14 29.79F HX 99  
WRIGHTSTOWN FAIR 88 72 58 W12 29.76 HX 95  
TOMS RIVER N/A 91 73 55 SW13G20 29.78F HX 99  
BELMAR FAIR 88 73 61 SW10 29.79F HX 95  

 
 
PAZ047>061-062-071-182100-  
EASTERN PENNSYLVANIA  
 
CITY SKY/WX TMP DP RH WIND PRES REMARKS
 
PHILADELPHIA PTSUNNY 87 70 56 W13 29.79F HX 92  
ALLENTOWN FAIR 86 70 58 W14 29.79F HX 90  
SCRANTON CLOUDY 75 68 78 NW8 29.85S  

 
 
CTZ002-004>006-009-010-012-RIZ004-006-007-MAZ004-011-015-182100-  
SOUTHERN NEW ENGLAND  
 
IN CT  
 
CITY SKY/WX TMP DP RH WIND PRES REMARKS
 
BRADLEY INTL LGT RAIN 72 70 93 N5 29.81R  
HARTFORD PTSUNNY 76 70 82 N15G22 29.78R  
DANBURY FAIR 81 71 71 SW7 29.79S  
WTRBURY/OXFORD PTSUNNY 80 72 76 SW3 29.80S THUNDER  
NORWALK HARBOR N/A 81 N/A N/A S7 N/A  
BRIDGEPORT FAIR 85 73 67 SW10 29.76S HX 91  
MERIDEN FAIR 84 70 62 SW5 29.76S  
NEW HAVEN PTSUNNY 84 74 71 SW8 29.76F HX 91  
CHESTER FAIR 86 72 62 VRB6 29.78F HX 92  
GROTON FAIR 81 74 79 SW7 29.76F  
WILLIMANTIC LGT RAIN 82 74 76 NW6 29.77S  
 
IN RI  
 
CITY SKY/WX TMP DP RH WIND PRES REMARKS
 
PROVIDENCE TSTM 74 71 91 NW12G20 29.76S  
BLOCK ISLAND FAIR 77 72 84 SW13 29.79F  
WESTERLY FAIR 82 76 81 S9 29.78F  
 
IN MA  
 
CITY SKY/WX TMP DP RH WIND PRES REMARKS
 
BOSTON CLOUDY 78 67 68 N12 29.77S  
WORCESTER HVY RAIN 71 70 96 N5 29.82S FOG  
WESTFIELD LGT RAIN 72 72 100 CALM 29.81S  
PROVINCETOWN FAIR 80 74 81 W6 29.77S  
NANTUCKET PTSUNNY 78 75 90 SW9 29.79F  

 
 
ANZ330-335-338-340-345-350-353-355-182100-  
COASTAL MARINE OBSERVATIONS  
 
 
STATION/POSITION TIME SKY/WX TEMP WIND PRES VSBY WAVE
 
AIR SEA DIR/SP/G HT/PER  
(UTC) (F) (DEG/KT/KT) (MB) (MI) (FT/S)  
NY HARB ENTRANCE 1950 79 78 190/ 10/ 12 1007.8 2/ 6  
20 S FIRE ISLAND 1950 79 77 220/ 12/ 14 1008.4 3/ 5  
GREAT SOUTH BAY 1900 78 82 220/ 10/ 16 N/A  
23 SSW MONTAUK P 1950 77 78 CALM 1008.6 3/ 6  
15 E BARNEGAT LI 1900 80 N/A 4/ 6  
HUDSON CANYON 1850 80 230/ 16/ 17 1009.5 3/ 6  
KINGS POINT 1942 81 77 200/ 4/ 4 1008.9  
EXECUTION ROCKS 1945 77 190/ 8/ 12 N/A  
WESTERN LI SOUND 1900 81 220/ 6/ 6 N/A 1  
CENTRAL LI SOUND NOT AVBL  
ROBBINS REEF 1942 85 260/ 14/ 17 1008.4  

 
 
>>>>>>>>>>>>>>>>>>>>>>>>>>>> KEY <<<<<<<<<<<<<<<<<<<<<<<<<<<  
> <  
> SKY/WX - SKY CONDITION/PRESENT WEATHER <  
> TMP - TEMPERATURE IN FAHRENHEIT <  
> DP - DEW POINT IN FAHRENHEIT <  
> RH - RELATIVE HUMIDITY IN PERCENT <  
> WIND - DIRECTION (FROM) AND SPEED IN MPH <  
> PRES - MEAN SEA LEVEL PRESSURE (INCHES OF HG) <  
> WCI - WIND CHILL INDEX <  
> VSB - VISIBILITY IN MILES <  
> HX - HEAT INDEX <  
> TC - TEMPERATURE IN CELSIUS <  
> VRB - VARIBALE WIND DIRECTION <  
> <  
>>>>>>>>>>>>>>>>>>>>>>>>>>>> KEY <<<<<<<<<<<<<<<<<<<<<<<<<<<  
 
 
CLICK HERE TO GO TO PREVIOUS BULLETINS.

The Nexlab NY Page
The Nexlab NJ Page
The Nexlab CT Page Main Text Page